Temp
8 8 8 8 9 9 10 10 11 11 12 12 13 14 14 15 17 18 18 22 23 24 24 25 26 26 26 24 25 25 22 21 27 29 29 31 33 33 33 31 31 30 29 29 28
8 7 7 8 9 9 9 10 10 11 11 12 12 13 13 15 15 15 23 24 24 24 23 24 23 23 21 23 25 23 20 23 25 29 29 29 30 33 32 30 29 28 28 28 27
7 7 8 8 8 9 9 9 9 10 11 11 12 13 13 14 15 19 24 24 25 23 23 24 24 24 23 24 25 24 23 25 27 28 28 30 30 29 31 31 28 28 28 27 27
6 7 7 7 8 8 9 9 9 9 10 11 12 12 13 14 18 23 23 22 23 23 23 23 23 24 23 22 24 25 25 26 27 28 30 31 29 31 30 32 30 28 29 28 27
6 6 6 7 7 8 8 8 9 9 9 10 11 11 12 13 15 22 21 21 21 22 23 23 23 23 23 24 23 25 25 26 26 26 28 30 30 30 30 29 29 28 28 28 27
6 6 6 6 7 7 8 8 8 9 9 9 10 11 11 12 17 20 19 20 20 21 22 22 22 23 23 23 23 25 25 25 25 26 27 28 28 29 29 30 29 29 26 27 28
6 6 6 6 6 7 7 8 8 8 9 9 9 9 12 14 16 18 18 17 19 19 19 23 24 24 23 24 25 25 24 24 25 28 28 29 28 27 27 28 28 27 27 26 26
5 6 6 6 7 7 7 8 8 8 8 9 9 9 11 13 15 17 18 18 20 21 20 23 25 23 23 24 23 24 23 23 26 28 28 28 26 27 25 26 26 25 25 26 25
5 5 6 6 6 7 7 7 8 8 8 9 9 9 12 14 14 17 17 16 19 20 23 24 24 22 23 21 21 21 20 22 24 27 27 27 25 26 26 25 25 24 24 25 25
5 5 5 6 6 7 7 7 8 8 9 9 8 9 12 14 16 18 18 18 19 21 21 22 20 20 18 18 21 20 21 22 22 25 26 23 23 25 26 24 26 25 22 23 25
5 5 5 6 6 7 7 7 7 8 8 8 9 11 15 16 17 17 19 18 19 20 19 20 18 19 20 19 21 22 22 22 23 24 26 24 23 25 26 23 23 24 24 24 24
5 5 5 5 6 6 6 7 9 8 9 9 10 11 13 14 14 16 18 17 18 17 20 19 18 21 20 21 20 20 21 21 22 23 24 23 22 23 26 26 26 25 23 23 24
4 4 4 5 5 6 6 6 8 7 8 11 10 10 12 15 15 15 17 18 18 18 19 19 20 22 21 21 21 21 21 22 22 24 23 24 23 24 26 25 26 24 25 25 24
4 4 5 5 6 6 7 7 8 7 8 11 12 12 13 14 14 17 18 17 18 19 19 19 21 21 22 21 22 20 23 23 23 23 22 24 22 25 25 25 26 25 25 23 23
4 4 4 4 5 5 7 7 7 8 8 13 14 15 15 14 16 17 17 17 17 18 19 19 20 21 21 22 23 22 23 23 23 23 23 24 21 25 24 24 25 25 24 23 23
4 4 4 4 5 6 7 6 7 8 8 13 15 13 13 14 15 16 17 17 19 17 19 19 21 22 22 23 23 24 24 23 23 21 20 23 21 25 24 24 25 27 26 25 25
4 4 4 4 5 6 6 7 8 8 12 14 15 14 14 14 14 15 15 16 16 16 17 19 19 21 22 22 23 23 22 20 20 19 21 24 21 24 24 24 26 25 27 28 23
4 4 5 4 6 6 5 7 8 9 12 15 16 15 13 15 14 15 15 14 16 17 17 17 17 19 21 21 22 22 22 18 19 20 22 23 21 23 25 27 27 26 26 27 24
4 4 4 5 6 4 6 7 6 10 12 13 14 14 14 15 14 14 14 15 16 17 16 17 18 21 22 22 23 22 21 23 21 21 20 22 24 24 25 27 27 25 26 23 22
3 4 5 6 6 5 6 8 7 11 13 13 12 14 13 14 14 14 14 16 16 17 18 18 17 20 22 22 22 22 24 21 20 20 20 20 20 22 23 25 25 23 25 24 21
3 4 6 7 6 6 7 8 9 11 12 11 13 13 14 15 14 14 13 15 16 17 17 17 17 18 20 21 21 21 21 22 22 20 20 20 22 23 23 24 24 23 22 21 19
3 3 6 5 7 6 7 8 11 11 12 12 13 13 13 14 14 14 16 16 17 17 16 17 16 16 17 20 21 22 22 22 21 20 20 21 22 24 25 26 26 25 24 22 21
3 2 6 5 7 7 8 9 9 11 11 11 11 12 12 13 12 14 15 17 16 14 15 17 15 15 16 18 20 19 20 21 21 22 21 20 21 25 25 24 23 24 24 23 21
3 3 2 5 3 5 7 8 9 11 10 10 11 12 11 11 12 12 13 16 15 15 15 15 14 15 15 17 18 18 20 21 20 19 21 21 22 22 23 25 26 25 23 22 22
1 4 4 2 4 5 5 7 8 9 10 10 9 10 10 10 11 11 13 13 15 14 14 14 12 11 12 13 14 15 15 16 19 21 19 21 22 24 22 22 24 24 23 23 24
2 3 4 4 4 4 5 6 7 8 8 9 9 10 10 10 11 11 12 13 13 15 14 12 11 12 11 11 11 11 13 13 15 17 21 21 22 25 24 22 23 23 23 22 21
4 4 3 4 5 5 5 7 8 8 9 9 10 10 10 11 11 12 11 12 11 12 12 13 12 12 11 14 14 12 13 14 15 16 18 19 21 23 24 23 24 24 25 23 22
Height
829 828 827 826 825 823 821 820 818 817 815 812 810 809 806 802 798 796 793 789 788 787 785 782 781 782 781 780 778 778 811 822 797 785 779 755 756 743 740 750 747 744 747 751 763
828 827 827 825 823 822 821 818 817 814 812 811 809 807 805 801 798 792 783 783 783 785 786 783 782 782 788 783 779 789 813 802 779 769 772 762 757 750 753 755 757 753 749 752 760
829 828 826 823 821 819 818 818 815 814 812 809 808 806 804 802 801 783 776 776 778 782 784 783 781 784 789 782 781 781 798 781 771 767 763 762 758 753 755 765 757 757 754 756 760
828 826 825 823 821 817 814 815 814 812 810 809 807 805 804 804 805 778 777 778 780 781 782 781 779 785 792 793 779 786 774 773 770 762 760 759 758 758 757 755 746 746 747 755 759
826 824 823 821 819 817 816 814 811 811 810 807 806 805 804 804 788 778 777 777 781 781 779 781 781 782 792 784 781 780 772 765 763 763 759 753 756 757 755 746 748 748 750 752 754
824 822 821 819 817 815 813 812 811 811 809 807 805 804 805 798 784 780 776 775 780 781 779 779 778 776 780 781 785 773 770 767 762 761 758 760 757 754 750 742 742 748 750 748 749
822 820 819 816 813 811 810 808 807 806 806 805 804 802 795 777 778 775 776 776 776 779 779 774 774 776 776 777 768 769 777 769 761 756 758 751 761 761 748 744 748 745 745 747 744
820 818 815 813 810 808 806 805 803 803 803 803 802 802 785 777 777 771 773 772 772 773 775 771 772 771 774 768 770 778 779 789 762 754 753 754 775 752 746 750 749 747 744 740 739
818 816 813 810 808 806 803 801 800 800 801 801 800 799 781 771 769 765 771 773 771 769 767 767 767 771 771 785 793 787 800 788 777 754 755 759 768 749 738 746 747 744 741 737 735
815 813 811 808 805 802 800 799 798 799 799 799 798 800 776 764 763 760 762 766 769 768 766 764 769 779 784 792 792 793 790 783 784 764 758 767 770 750 739 743 740 736 737 733 731
813 810 807 805 801 800 800 799 801 800 796 787 780 770 758 759 760 754 758 762 766 767 773 764 780 780 772 775 772 776 778 781 771 759 761 765 768 750 737 741 742 737 733 730 727
810 808 805 802 799 798 798 798 793 797 789 779 775 772 765 765 766 755 755 761 762 765 765 772 770 758 766 767 773 778 782 777 770 761 765 765 764 752 733 728 726 728 729 728 723
807 804 801 799 796 794 794 794 793 793 789 769 766 765 762 764 758 754 754 751 751 761 762 763 749 753 761 765 770 771 774 772 773 762 757 761 759 750 727 722 716 719 716 715 715
804 802 799 797 795 790 788 788 790 797 789 766 755 749 750 753 755 743 746 753 750 749 753 757 748 751 754 759 760 770 752 759 763 772 779 753 780 745 733 728 722 715 712 713 710
800 798 796 795 793 790 785 785 789 794 783 745 739 733 736 745 738 735 739 744 748 744 751 743 744 747 753 742 747 751 748 755 758 764 765 759 780 735 732 732 723 715 712 707 702
797 794 792 790 788 783 782 783 787 784 774 735 726 732 738 737 733 733 730 737 737 748 742 737 732 737 736 732 737 737 748 751 754 767 785 751 771 732 736 727 717 706 702 698 693
792 789 787 785 781 780 781 779 778 766 742 730 724 724 726 728 732 734 731 735 740 751 747 735 733 728 727 737 735 739 753 775 778 780 763 740 759 723 715 711 704 705 697 688 690
786 781 776 773 773 776 782 771 764 749 739 718 715 718 726 723 726 728 729 736 730 732 737 743 745 728 715 722 729 733 740 765 774 767 749 735 742 719 696 693 694 692 689 683 686
779 772 765 758 763 771 777 758 768 738 726 724 720 720 723 720 722 727 730 727 724 722 734 731 730 706 710 710 719 723 736 720 745 737 756 735 709 702 694 691 690 690 684 685 681
776 769 757 752 757 766 765 751 746 727 722 726 729 720 720 718 722 724 725 713 716 716 713 716 728 705 698 708 710 714 705 739 737 753 757 738 732 724 703 693 690 689 679 674 675
774 768 751 748 755 758 748 739 731 728 730 736 723 725 714 714 715 716 722 714 712 712 717 717 723 714 705 707 705 710 716 714 717 727 738 740 715 693 695 689 687 681 674 671 672
775 773 753 752 750 749 743 741 732 730 732 732 725 722 721 713 716 716 709 707 701 705 716 710 716 718 713 696 692 699 699 703 717 722 716 713 705 675 673 671 668 675 671 668 668
774 768 754 750 743 744 740 735 735 729 729 728 724 719 721 719 722 711 707 699 701 711 712 703 710 721 716 710 693 701 696 698 697 695 702 714 698 672 669 676 674 675 671 672 671
775 771 759 753 756 748 742 735 729 727 730 730 724 724 724 721 717 716 706 698 699 698 700 702 710 708 703 694 693 699 692 688 695 705 697 693 687 679 674 672 664 665 667 667 670
777 770 763 766 756 751 751 739 730 730 724 725 724 718 722 724 718 715 704 702 699 698 699 702 709 720 715 711 709 705 703 701 690 686 696 685 679 668 671 673 665 657 658 661 657
776 772 765 760 754 754 747 738 733 730 726 720 721 712 718 720 718 711 704 702 700 696 698 700 710 711 712 717 719 722 713 711 702 689 678 676 671 650 654 660 659 657 658 659 656
770 769 766 756 752 751 745 734 726 727 719 718 716 715 712 701 700 701 705 700 703 704 704 700 703 706 706 696 696 706 704 700 695 687 685 682 667 653 649 650 650 650 648 652 650
Wind_Speed
14 16 17 16 16 17 18 16 16 16 16 17 18 18 20 21 24 22 9 14 17 15 18 19 20 18 15 4 4 3 2 2 4 1 7 6 2 4 2 8 3 2 9 14 30
16 17 18 18 17 17 17 17 17 16 17 17 18 18 19 19 23 17 27 26 24 23 23 11 7 10 5 5 4 4 4 8 7 1 7 8 3 1 5 4 5 5 9 29 32
16 17 19 19 19 18 18 17 17 16 16 17 17 18 16 16 6 8 7 11 19 18 17 13 7 1 3 2 3 4 6 6 10 9 7 3 6 5 5 3 5 11 18 19 26
19 18 18 19 19 19 19 18 17 16 16 15 15 16 14 6 6 2 4 6 2 7 7 6 3 3 3 5 4 5 6 5 7 6 7 5 6 5 3 1 6 11 21 17 18
18 19 19 19 20 20 18 17 18 16 16 15 15 13 7 4 9 6 4 12 20 8 6 4 3 5 4 5 7 4 7 8 7 9 9 5 6 6 6 8 6 8 11 19 19
18 19 18 19 20 20 19 17 16 16 15 15 15 11 4 15 13 25 20 25 20 13 12 5 7 5 6 6 4 8 16 15 8 8 7 8 6 6 6 6 8 6 14 16 17
18 20 19 21 21 20 19 17 17 16 15 14 13 10 10 21 11 15 17 23 24 22 7 18 7 4 3 5 4 4 7 10 5 4 5 4 5 7 9 6 9 10 8 11 14
18 21 21 22 21 20 19 17 16 16 15 13 12 8 9 9 15 26 31 29 28 26 23 27 13 5 5 5 7 4 2 5 4 6 6 4 8 9 10 7 12 11 11 10 10
18 20 21 21 21 20 19 17 16 15 13 11 8 4 12 7 14 34 35 21 22 21 16 19 5 5 3 4 4 2 6 5 6 4 5 4 7 7 12 9 12 10 11 12 10
19 19 22 22 21 21 20 16 14 12 8 7 6 4 9 7 19 16 25 26 13 8 6 4 3 4 2 4 13 7 5 6 6 5 3 10 10 15 14 6 15 12 11 10 10
19 20 22 22 19 20 18 11 1 3 7 9 8 7 10 16 11 14 11 17 8 5 9 5 4 14 16 8 4 3 4 7 3 6 4 11 9 18 18 8 11 10 9 9 11
18 19 21 21 20 19 15 5 4 6 7 19 19 15 26 18 9 12 5 10 10 17 10 4 16 19 7 8 8 9 12 16 8 10 6 10 11 12 16 15 15 12 10 11 8
21 20 20 21 22 17 15 17 21 16 4 6 8 8 10 11 13 20 4 8 10 12 15 17 9 13 13 14 12 14 17 14 12 7 7 6 12 8 8 6 6 8 8 8 13
20 21 21 20 14 10 9 16 23 15 5 6 7 8 8 9 9 16 25 5 9 22 19 15 17 13 17 21 17 18 15 8 10 5 10 5 7 9 7 8 7 10 8 10 11
20 21 21 15 16 8 10 7 11 9 5 7 12 8 9 12 6 14 24 4 16 14 12 20 20 24 18 26 19 14 8 10 10 9 1 13 4 13 5 8 9 8 10 11 12
21 21 21 18 9 18 16 17 8 7 10 5 8 11 8 11 16 4 10 14 3 14 15 25 10 15 27 22 18 16 6 8 6 3 4 18 7 18 10 7 6 7 10 11 13
23 24 20 20 11 17 7 6 6 5 4 5 5 12 19 14 15 24 6 14 15 11 18 23 24 23 15 23 18 11 7 7 6 6 16 9 6 18 4 7 13 12 16 19 8
27 27 28 29 27 23 10 5 8 6 11 5 5 10 16 11 6 21 27 16 8 13 11 18 14 23 15 25 21 28 19 8 10 7 16 6 9 8 11 17 18 15 15 14 10
28 24 18 27 20 19 4 7 7 6 10 12 8 4 16 14 7 13 22 25 14 17 13 14 15 5 21 24 20 21 15 22 11 2 1 7 16 7 10 19 20 18 17 13 10
19 15 12 10 11 14 6 8 7 8 6 14 10 6 9 10 11 12 14 16 28 20 18 8 7 20 17 22 20 20 20 10 6 16 19 8 6 6 6 14 7 12 19 16 9
11 4 8 3 18 6 11 10 9 6 7 2 16 12 8 2 14 13 6 10 11 21 18 14 12 5 4 19 25 20 20 15 11 10 13 15 14 8 12 12 8 10 9 11 11
4 3 3 7 6 3 12 7 7 10 9 11 5 9 18 24 9 4 9 13 2 8 19 24 7 21 24 11 6 14 22 22 14 19 10 16 17 3 18 23 21 7 7 7 6
2 3 5 3 3 6 6 11 7 5 4 4 11 7 9 4 5 10 15 13 12 6 8 10 9 13 9 16 25 15 18 12 11 14 23 15 18 15 19 10 7 7 7 5 8
2 4 3 2 1 4 5 8 19 11 17 12 13 10 13 14 11 7 6 3 5 7 8 15 7 9 20 20 4 9 21 20 17 12 18 19 23 13 13 24 23 18 11 9 11
1 3 3 3 3 5 4 6 10 13 11 8 5 20 16 6 9 10 14 9 4 5 6 12 7 8 12 12 15 14 15 17 18 19 15 19 27 22 13 12 18 16 9 9 13
2 2 3 3 8 6 3 2 7 8 7 11 19 16 7 17 17 16 6 3 6 1 4 3 3 6 6 9 11 12 19 18 20 23 18 17 23 23 18 12 14 11 8 10 9
4 5 4 4 5 6 5 11 9 5 9 17 13 13 12 24 19 14 11 11 4 3 3 4 4 4 11 12 9 10 16 15 16 20 18 20 21 17 23 19 18 15 18 12 10
Wind_Direction
347 342 335 327 321 322 319 322 323 324 321 316 317 318 321 318 311 312 261 259 279 283 305 307 312 326 333 251 190 106 69 229 248 296 291 338 106 320 20 105 2 169 147 152 156
345 342 338 335 321 317 318 317 315 320 319 320 317 318 321 326 322 285 275 278 270 268 290 300 308 359 335 283 300 133 148 216 222 348 318 310 346 258 86 22 12 72 86 138 150
340 336 331 329 332 317 314 312 314 312 316 316 314 318 320 337 308 254 306 278 246 256 260 264 273 47 277 301 247 231 194 236 275 280 282 278 350 327 130 123 208 155 149 152 157
329 325 325 326 326 324 311 309 308 308 308 310 312 315 316 331 243 296 28 35 0 235 235 247 216 142 276 306 278 287 244 222 269 238 274 280 159 334 343 86 195 164 160 159 166
330 324 318 320 320 317 313 303 303 303 303 307 311 316 327 232 242 217 290 322 316 267 224 233 235 160 217 263 325 232 270 277 259 272 229 248 245 197 271 280 173 191 169 176 180
325 323 315 317 316 313 309 304 295 295 296 299 309 309 237 251 253 256 284 286 295 302 295 214 240 223 260 244 216 281 283 280 278 277 235 191 237 165 233 268 301 167 188 190 191
323 321 312 314 314 314 308 303 294 291 290 293 306 313 247 243 256 263 279 288 282 288 298 280 262 181 298 293 235 269 312 310 240 220 254 185 265 223 236 264 261 278 234 202 212
324 324 314 314 313 311 306 298 295 287 285 286 301 302 257 258 262 272 273 277 275 271 272 265 279 216 189 262 354 351 325 274 303 219 246 129 254 256 239 233 255 250 254 246 216
324 322 321 315 311 308 307 297 294 286 281 283 298 222 271 263 233 257 260 257 269 285 281 265 255 213 257 131 6 226 241 249 306 269 256 162 283 239 261 195 250 248 244 241 246
322 322 319 318 312 310 307 291 290 283 274 257 246 310 243 246 233 248 257 227 235 283 286 212 176 205 128 140 216 215 217 248 225 269 250 278 261 270 269 221 231 244 252 229 227
321 318 319 318 313 307 304 307 279 274 213 213 195 235 292 224 268 236 223 203 215 217 221 196 163 220 211 193 172 280 240 236 260 261 239 261 255 260 262 231 244 249 249 225 221
320 319 318 318 313 301 298 228 179 22 285 230 248 242 263 296 286 291 232 181 178 216 214 254 223 225 197 210 212 231 251 261 287 267 200 269 264 252 266 239 219 221 228 234 251
317 316 314 318 309 296 265 239 250 335 287 260 212 228 233 231 251 258 246 203 215 201 208 212 227 208 192 222 222 228 230 238 247 288 245 249 281 281 282 225 220 216 217 236 227
313 312 313 319 303 317 243 254 241 254 268 253 213 243 190 211 265 239 245 241 229 212 209 232 233 235 201 220 214 231 227 228 244 224 252 143 271 271 252 270 253 262 252 246 246
315 314 312 313 295 294 278 315 228 169 245 224 217 189 176 174 153 235 222 228 229 212 188 223 215 217 224 221 209 238 217 212 226 237 232 256 236 264 210 247 252 260 255 257 255
314 311 310 313 280 266 281 289 218 191 226 253 168 171 149 212 214 295 179 199 240 235 241 228 235 208 224 232 218 231 257 241 233 158 240 249 183 261 231 205 245 259 273 258 263
311 308 296 284 254 273 288 198 195 214 261 223 190 169 195 198 214 214 211 183 199 202 216 232 225 241 236 228 230 224 185 225 236 214 233 210 223 241 195 224 229 231 247 259 266
312 308 292 271 270 267 260 237 201 186 214 250 217 193 202 187 216 212 229 234 235 212 214 221 228 219 221 223 212 222 214 202 202 213 234 207 222 240 213 232 251 254 257 267 268
315 307 280 270 250 222 203 235 200 201 211 230 285 252 216 211 194 186 218 230 224 214 217 199 230 199 215 225 214 228 222 229 252 217 358 225 254 279 271 274 261 253 255 253 255
313 295 270 301 208 169 221 210 220 221 303 207 250 237 212 210 215 207 195 225 234 225 227 256 281 224 231 216 231 228 231 232 209 227 240 240 237 219 225 228 256 261 241 238 226
305 297 287 305 176 185 217 237 237 262 299 285 238 262 267 223 216 222 210 285 244 227 234 249 248 243 254 219 217 223 234 229 221 219 225 240 243 198 235 267 247 295 257 208 191
290 296 286 354 200 197 220 213 233 264 261 261 281 249 249 261 266 299 254 229 271 204 230 230 228 242 243 258 250 256 232 227 224 224 226 230 245 293 217 235 249 278 310 220 208
275 258 306 297 201 227 246 251 251 242 218 248 247 233 266 283 267 244 262 244 232 201 239 238 227 244 243 246 264 246 252 244 260 234 229 226 242 227 257 271 240 262 280 238 214
291 307 302 60 102 299 248 239 241 231 252 267 270 296 289 281 267 286 300 326 231 232 206 192 250 239 237 231 239 240 236 242 237 247 241 235 250 244 227 234 255 268 262 232 204
197 268 294 295 311 318 289 310 263 238 235 273 283 231 237 271 278 250 259 264 237 188 234 196 213 196 261 289 302 277 282 287 258 238 244 251 243 239 222 221 238 251 251 250 255
248 288 294 271 290 278 251 269 294 279 241 230 230 245 277 239 242 272 294 233 221 280 201 218 208 174 224 228 245 266 286 296 286 281 259 252 257 246 233 227 236 238 234 250 236
230 268 280 279 289 281 249 268 280 279 254 251 262 276 253 238 241 257 255 266 243 322 274 226 193 205 263 254 252 247 250 254 269 265 277 256 263 265 252 235 231 235 238 227 218